Time,TemperatureF,DewpointF,PressureIn,WindDirection,WindDirectionDegrees,WindSpeedMPH,WindSpeedGustMPH,Humidity,HourlyPrecipIn,Conditions,Clouds,dailyrainin,SolarRadiationWatts/m^2,SoftwareType,DateUTC
2013-08-26 00:00:00,54.0,48.6,29.84,WNW,286,0.0,1.0,82,0.00,,,0.00,0.00,VWS V14.00,2013-08-26 06:00:00,
2013-08-26 00:03:00,53.9,48.5,29.84,WNW,286,0.0,0.0,82,0.00,,,0.00,0.00,VWS V14.00,2013-08-26 06:03:00,
2013-08-26 00:09:00,53.7,48.3,29.84,WNW,286,0.0,0.0,82,0.00,,,0.00,0.00,VWS V14.00,2013-08-26 06:09:00,
2013-08-26 00:14:00,53.4,48.0,29.84,WNW,286,0.0,0.0,82,0.00,,,0.00,0.00,VWS V14.00,2013-08-26 06:14:00,
2013-08-26 00:15:00,53.3,48.0,29.84,WNW,286,0.0,0.0,82,0.00,,,0.00,0.00,VWS V14.00,2013-08-26 06:15:00,
2013-08-26 00:19:00,53.2,48.2,29.85,WNW,286,0.0,0.0,83,0.00,,,0.00,0.00,VWS V14.00,2013-08-26 06:19:00,
2013-08-26 00:24:00,53.0,48.0,29.84,WNW,286,0.0,1.0,83,0.00,,,0.00,0.00,VWS V14.00,2013-08-26 06:24:00,
2013-08-26 00:29:00,52.7,48.0,29.85,WNW,286,0.0,1.0,84,0.00,,,0.00,0.00,VWS V14.00,2013-08-26 06:29:00,
2013-08-26 00:30:00,52.6,47.9,29.84,WNW,286,0.0,1.0,84,0.00,,,0.00,0.00,VWS V14.00,2013-08-26 06:30:00,
2013-08-26 00:34:00,52.5,47.8,29.85,WNW,286,0.0,0.0,84,0.00,,,0.00,0.00,VWS V14.00,2013-08-26 06:34:00,
2013-08-26 00:39:00,52.3,47.6,29.84,WNW,286,0.0,0.0,84,0.00,,,0.00,0.00,VWS V14.00,2013-08-26 06:39:00,
2013-08-26 00:44:00,52.1,47.7,29.84,WNW,286,0.0,0.0,85,0.00,,,0.00,0.00,VWS V14.00,2013-08-26 06:44:00,
2013-08-26 00:45:00,52.0,47.6,29.84,WNW,286,0.0,0.0,85,0.00,,,0.00,0.00,VWS V14.00,2013-08-26 06:45:00,
2013-08-26 00:49:00,51.9,47.5,29.84,WNW,286,0.0,0.0,85,0.00,,,0.00,0.00,VWS V14.00,2013-08-26 06:49:00,
2013-08-26 00:54:00,51.9,47.8,29.84,WNW,286,0.0,0.0,86,0.00,,,0.00,0.00,VWS V14.00,2013-08-26 06:54:00,
2013-08-26 00:59:00,51.7,47.7,29.84,WNW,286,0.0,1.0,86,0.00,,,0.00,0.00,VWS V14.00,2013-08-26 06:59:00,
2013-08-26 01:00:00,51.7,47.7,29.84,WNW,286,0.0,1.0,86,0.00,,,0.00,0.00,VWS V14.00,2013-08-26 07:00:00,
2013-08-26 01:04:00,51.7,47.7,29.84,WNW,286,0.0,0.0,86,0.00,,,0.00,0.00,VWS V14.00,2013-08-26 07:04:00,
2013-08-26 01:09:00,51.6,47.6,29.85,WNW,286,0.0,0.0,86,0.00,,,0.00,0.00,VWS V14.00,2013-08-26 07:09:00,
2013-08-26 01:14:00,51.5,47.5,29.84,WNW,286,0.0,0.0,86,0.00,,,0.00,0.00,VWS V14.00,2013-08-26 07:14:00,
2013-08-26 01:15:00,51.5,47.5,29.84,WNW,286,0.0,0.0,86,0.00,,,0.00,0.00,VWS V14.00,2013-08-26 07:15:00,
2013-08-26 01:19:00,51.5,47.5,29.84,WNW,286,0.0,0.0,86,0.00,,,0.00,0.00,VWS V14.00,2013-08-26 07:19:00,
2013-08-26 01:24:00,51.4,47.4,29.84,WNW,286,0.0,0.0,86,0.00,,,0.00,0.00,VWS V14.00,2013-08-26 07:24:00,
2013-08-26 01:29:00,51.3,47.3,29.84,WNW,286,0.0,0.0,86,0.00,,,0.00,0.00,VWS V14.00,2013-08-26 07:29:00,
2013-08-26 01:30:00,51.3,47.3,29.84,WNW,286,0.0,0.0,86,0.00,,,0.00,0.00,VWS V14.00,2013-08-26 07:30:00,
2013-08-26 01:34:00,51.3,47.3,29.84,WNW,286,0.0,0.0,86,0.00,,,0.00,0.00,VWS V14.00,2013-08-26 07:34:00,
2013-08-26 01:39:00,51.1,47.1,29.85,WNW,286,0.0,0.0,86,0.00,,,0.00,0.00,VWS V14.00,2013-08-26 07:39:00,
2013-08-26 01:45:00,51.0,47.0,29.84,WNW,286,0.0,0.0,86,0.00,,,0.00,0.00,VWS V14.00,2013-08-26 07:45:00,
2013-08-26 01:50:00,50.8,46.8,29.84,WNW,286,0.0,0.0,86,0.00,,,0.00,0.00,VWS V14.00,2013-08-26 07:50:00,
2013-08-26 01:55:00,50.6,46.6,29.84,WNW,286,0.0,0.0,86,0.00,,,0.00,0.00,VWS V14.00,2013-08-26 07:55:00,
2013-08-26 02:00:00,50.5,46.8,29.84,WNW,286,0.0,0.0,87,0.00,,,0.00,0.00,VWS V14.00,2013-08-26 08:00:00,
2013-08-26 02:05:00,50.5,47.1,29.84,WNW,286,0.0,0.0,88,0.00,,,0.00,0.00,VWS V14.00,2013-08-26 08:05:00,
2013-08-26 02:10:00,50.5,47.1,29.84,WNW,286,0.0,0.0,88,0.00,,,0.00,0.00,VWS V14.00,2013-08-26 08:10:00,
2013-08-26 02:15:00,50.6,47.2,29.84,WNW,286,0.0,0.0,88,0.00,,,0.00,0.00,VWS V14.00,2013-08-26 08:15:00,
2013-08-26 02:20:00,50.7,47.3,29.84,WNW,286,0.0,2.0,88,0.00,,,0.00,0.00,VWS V14.00,2013-08-26 08:20:00,
2013-08-26 02:25:00,50.9,47.5,29.84,WNW,286,0.0,2.0,88,0.00,,,0.00,0.00,VWS V14.00,2013-08-26 08:25:00,
2013-08-26 02:30:00,51.0,47.3,29.84,WNW,286,0.0,2.0,87,0.00,,,0.00,0.00,VWS V14.00,2013-08-26 08:30:00,
2013-08-26 02:36:00,51.0,47.3,29.84,WNW,286,0.0,1.0,87,0.00,,,0.00,0.00,VWS V14.00,2013-08-26 08:36:00,
2013-08-26 02:41:00,51.2,47.2,29.84,WNW,286,0.0,2.0,86,0.00,,,0.00,0.00,VWS V14.00,2013-08-26 08:41:00,
2013-08-26 02:45:00,51.3,47.3,29.83,WNW,286,0.0,2.0,86,0.00,,,0.00,0.00,VWS V14.00,2013-08-26 08:45:00,
2013-08-26 02:46:00,51.3,47.0,29.84,WNW,286,0.0,1.0,85,0.00,,,0.00,0.00,VWS V14.00,2013-08-26 08:46:00,
2013-08-26 02:51:00,51.5,47.2,29.84,WNW,286,0.0,2.0,85,0.00,,,0.00,0.00,VWS V14.00,2013-08-26 08:51:00,
2013-08-26 02:56:00,51.7,47.0,29.84,WNW,286,0.0,2.0,84,0.00,,,0.00,0.00,VWS V14.00,2013-08-26 08:56:00,
2013-08-26 03:00:00,51.9,46.9,29.84,WNW,286,0.0,2.0,83,0.00,,,0.00,0.00,VWS V14.00,2013-08-26 09:00:00,
2013-08-26 03:01:00,51.9,46.9,29.84,WNW,286,0.0,0.0,83,0.00,,,0.00,0.00,VWS V14.00,2013-08-26 09:01:00,
2013-08-26 03:06:00,52.2,47.2,29.83,WNW,286,1.0,1.0,83,0.00,,,0.00,0.00,VWS V14.00,2013-08-26 09:06:00,
2013-08-26 03:11:00,52.6,47.3,29.84,WNW,286,0.0,2.0,82,0.00,,,0.00,0.00,VWS V14.00,2013-08-26 09:11:00,
2013-08-26 03:15:00,52.9,47.6,29.84,WNW,292,0.0,4.0,82,0.00,,,0.00,0.00,VWS V14.00,2013-08-26 09:15:00,
2013-08-26 03:16:00,52.9,47.2,29.84,WNW,292,0.0,1.0,81,0.00,,,0.00,0.00,VWS V14.00,2013-08-26 09:16:00,
2013-08-26 03:21:00,53.1,47.4,29.84,WNW,293,0.0,2.0,81,0.00,,,0.00,0.00,VWS V14.00,2013-08-26 09:21:00,
2013-08-26 03:26:00,53.2,47.5,29.84,WNW,293,0.0,2.0,81,0.00,,,0.00,0.00,VWS V14.00,2013-08-26 09:26:00,
2013-08-26 03:30:00,53.1,47.1,29.83,WNW,293,0.0,2.0,80,0.00,,,0.00,0.00,VWS V14.00,2013-08-26 09:30:00,
2013-08-26 03:31:00,53.1,47.1,29.83,WNW,293,0.0,1.0,80,0.00,,,0.00,0.00,VWS V14.00,2013-08-26 09:31:00,
2013-08-26 03:36:00,53.1,47.1,29.83,WNW,303,0.0,4.0,80,0.00,,,0.00,0.00,VWS V14.00,2013-08-26 09:36:00,
2013-08-26 03:41:00,53.4,47.7,29.83,WNW,303,0.0,4.0,81,0.00,,,0.00,0.00,VWS V14.00,2013-08-26 09:41:00,
2013-08-26 03:45:00,53.6,47.6,29.83,WNW,303,0.0,4.0,80,0.00,,,0.00,0.00,VWS V14.00,2013-08-26 09:45:00,
2013-08-26 03:46:00,53.6,47.6,29.83,WNW,303,0.0,1.0,80,0.00,,,0.00,0.00,VWS V14.00,2013-08-26 09:46:00,
2013-08-26 03:52:00,53.7,47.7,29.83,WNW,284,0.0,4.0,80,0.00,,,0.00,0.00,VWS V14.00,2013-08-26 09:52:00,
2013-08-26 03:57:00,53.8,47.5,29.83,WNW,284,0.0,4.0,79,0.00,,,0.00,0.00,VWS V14.00,2013-08-26 09:57:00,
2013-08-26 04:00:00,53.8,47.8,29.83,WNW,289,4.0,5.0,80,0.00,,,0.00,0.00,VWS V14.00,2013-08-26 10:00:00,
2013-08-26 04:02:00,53.8,47.1,29.83,WNW,289,0.0,4.0,78,0.00,,,0.00,0.00,VWS V14.00,2013-08-26 10:02:00,
2013-08-26 04:07:00,53.9,47.2,29.83,WNW,289,0.0,4.0,78,0.00,,,0.00,0.00,VWS V14.00,2013-08-26 10:07:00,
2013-08-26 04:12:00,54.0,47.6,29.83,WNW,289,0.0,4.0,79,0.00,,,0.00,0.00,VWS V14.00,2013-08-26 10:12:00,
2013-08-26 04:15:00,54.0,47.6,29.83,WNW,289,0.0,4.0,79,0.00,,,0.00,0.00,VWS V14.00,2013-08-26 10:15:00,
2013-08-26 04:17:00,53.9,47.5,29.83,WNW,289,0.0,0.0,79,0.00,,,0.00,0.00,VWS V14.00,2013-08-26 10:17:00,
2013-08-26 04:22:00,53.8,47.1,29.83,WNW,289,0.0,1.0,78,0.00,,,0.00,0.00,VWS V14.00,2013-08-26 10:22:00,
2013-08-26 04:27:00,53.7,46.3,29.83,WNW,289,0.0,1.0,76,0.00,,,0.00,0.00,VWS V14.00,2013-08-26 10:27:00,
2013-08-26 04:30:00,53.6,46.6,29.83,WNW,289,0.0,1.0,77,0.00,,,0.00,0.00,VWS V14.00,2013-08-26 10:30:00,
2013-08-26 04:32:00,53.6,46.6,29.83,WNW,289,0.0,0.0,77,0.00,,,0.00,0.00,VWS V14.00,2013-08-26 10:32:00,
2013-08-26 04:37:00,53.5,46.8,29.83,WNW,289,0.0,1.0,78,0.00,,,0.00,0.00,VWS V14.00,2013-08-26 10:37:00,
2013-08-26 04:43:00,53.4,46.7,29.84,WNW,289,0.0,1.0,78,0.00,,,0.00,0.00,VWS V14.00,2013-08-26 10:43:00,
2013-08-26 04:45:00,53.3,46.6,29.84,WNW,289,0.0,1.0,78,0.00,,,0.00,0.00,VWS V14.00,2013-08-26 10:45:00,
2013-08-26 04:48:00,53.1,46.1,29.83,WNW,295,0.0,2.0,77,0.00,,,0.00,0.00,VWS V14.00,2013-08-26 10:48:00,
2013-08-26 04:53:00,53.2,46.2,29.83,WNW,298,0.0,2.0,77,0.00,,,0.00,0.00,VWS V14.00,2013-08-26 10:53:00,
2013-08-26 04:58:00,53.3,46.3,29.84,WNW,300,0.0,4.0,77,0.00,,,0.00,0.00,VWS V14.00,2013-08-26 10:58:00,
2013-08-26 05:00:00,53.4,46.4,29.84,WNW,300,0.0,4.0,77,0.00,,,0.00,0.00,VWS V14.00,2013-08-26 11:00:00,
2013-08-26 05:03:00,53.6,46.6,29.84,NW,304,1.0,4.0,77,0.00,,,0.00,0.00,VWS V14.00,2013-08-26 11:03:00,
2013-08-26 05:08:00,54.1,47.1,29.84,NW,313,0.0,4.0,77,0.00,,,0.00,0.00,VWS V14.00,2013-08-26 11:08:00,
2013-08-26 05:13:00,54.6,47.2,29.84,NW,313,0.0,4.0,76,0.00,,,0.00,0.00,VWS V14.00,2013-08-26 11:13:00,
2013-08-26 05:15:00,54.8,47.0,29.84,NW,319,1.0,5.0,75,0.00,,,0.00,0.00,VWS V14.00,2013-08-26 11:15:00,
2013-08-26 05:18:00,55.0,47.2,29.85,NW,319,0.0,4.0,75,0.00,,,0.00,0.00,VWS V14.00,2013-08-26 11:18:00,
2013-08-26 05:23:00,55.4,47.3,29.85,NW,319,1.0,4.0,74,0.00,,,0.00,0.00,VWS V14.00,2013-08-26 11:23:00,
2013-08-26 05:28:00,55.8,47.7,29.84,NW,321,0.0,5.0,74,0.00,,,0.00,0.00,VWS V14.00,2013-08-26 11:28:00,
2013-08-26 05:30:00,56.0,47.5,29.85,NW,321,1.0,5.0,73,0.00,,,0.00,0.00,VWS V14.00,2013-08-26 11:30:00,
2013-08-26 05:33:00,56.0,47.5,29.85,NW,320,0.0,2.0,73,0.00,,,0.00,0.00,VWS V14.00,2013-08-26 11:33:00,
2013-08-26 05:38:00,56.1,47.6,29.85,NW,319,0.0,2.0,73,0.00,,,0.00,0.00,VWS V14.00,2013-08-26 11:38:00,
2013-08-26 05:43:00,56.1,47.6,29.85,NW,317,0.0,4.0,73,0.00,,,0.00,0.00,VWS V14.00,2013-08-26 11:43:00,
2013-08-26 05:45:00,56.1,47.6,29.85,NW,317,0.0,4.0,73,0.00,,,0.00,0.00,VWS V14.00,2013-08-26 11:45:00,
2013-08-26 05:48:00,56.1,47.6,29.85,NW,315,0.0,5.0,73,0.00,,,0.00,0.00,VWS V14.00,2013-08-26 11:48:00,
2013-08-26 05:54:00,56.2,48.0,29.85,NW,305,0.0,6.0,74,0.00,,,0.00,0.00,VWS V14.00,2013-08-26 11:54:00,
2013-08-26 05:59:00,56.3,48.1,29.85,NW,310,6.0,8.0,74,0.00,,,0.00,0.00,VWS V14.00,2013-08-26 11:59:00,
2013-08-26 06:00:00,56.3,48.1,29.85,NW,304,5.0,8.0,74,0.00,,,0.00,0.00,VWS V14.00,2013-08-26 12:00:00,
2013-08-26 06:04:00,56.5,48.3,29.85,NW,309,0.0,9.0,74,0.00,,,0.00,0.00,VWS V14.00,2013-08-26 12:04:00,
2013-08-26 06:09:00,56.7,48.5,29.85,NW,309,0.0,9.0,74,0.00,,,0.00,0.00,VWS V14.00,2013-08-26 12:09:00,
2013-08-26 06:14:00,56.8,48.2,29.85,West,281,7.0,11.0,73,0.00,,,0.00,0.00,VWS V14.00,2013-08-26 12:14:00,
2013-08-26 06:15:00,56.9,48.3,29.85,WNW,299,0.0,11.0,73,0.00,,,0.00,5.00,VWS V14.00,2013-08-26 12:15:00,
2013-08-26 06:19:00,57.0,48.4,29.84,NW,306,1.0,5.0,73,0.00,,,0.00,5.00,VWS V14.00,2013-08-26 12:19:00,
2013-08-26 06:24:00,57.1,48.5,29.85,NW,307,1.0,5.0,73,0.00,,,0.00,9.00,VWS V14.00,2013-08-26 12:24:00,
2013-08-26 06:30:00,57.2,48.6,29.85,NNW,335,7.0,8.0,73,0.00,,,0.00,18.00,VWS V14.00,2013-08-26 12:30:00,
2013-08-26 06:45:00,57.7,49.1,29.85,NW,306,1.0,8.0,73,0.00,,,0.00,33.00,VWS V14.00,2013-08-26 12:45:00,
2013-08-26 07:00:00,58.4,49.4,29.84,NNW,336,0.0,9.0,72,0.00,,,0.00,44.00,VWS V14.00,2013-08-26 13:00:00,
2013-08-26 07:15:00,59.4,49.6,29.84,WNW,288,4.0,21.0,70,0.00,,,0.00,79.00,VWS V14.00,2013-08-26 13:15:00,
2013-08-26 07:20:00,59.7,49.5,29.83,SW,221,0.0,12.0,69,0.00,,,0.00,97.00,VWS V14.00,2013-08-26 13:20:00,
2013-08-26 07:28:00,60.3,49.7,29.84,SSW,199,0.0,13.0,68,0.00,,,0.00,86.00,VWS V14.00,2013-08-26 13:28:00,
2013-08-26 07:30:00,60.4,49.8,29.84,WNW,288,5.0,13.0,68,0.00,,,0.00,95.00,VWS V14.00,2013-08-26 13:30:00,
2013-08-26 07:33:00,60.5,49.9,29.84,SW,229,0.0,11.0,68,0.00,,,0.00,127.00,VWS V14.00,2013-08-26 13:33:00,
2013-08-26 07:45:00,61.1,50.1,29.84,NW,304,2.0,11.0,67,0.00,,,0.00,186.00,VWS V14.00,2013-08-26 13:45:00,
2013-08-26 07:51:00,61.6,50.1,29.84,NNW,334,1.0,6.0,66,0.00,,,0.00,197.00,VWS V14.00,2013-08-26 13:51:00,
2013-08-26 08:00:00,62.5,50.6,29.83,WNW,297,0.0,6.0,65,0.00,,,0.00,258.00,VWS V14.00,2013-08-26 14:00:00,
2013-08-26 08:02:00,62.7,50.4,29.83,NW,304,0.0,2.0,64,0.00,,,0.00,264.00,VWS V14.00,2013-08-26 14:02:00,
2013-08-26 08:14:00,63.9,50.6,29.83,SW,215,0.0,4.0,62,0.00,,,0.00,306.00,VWS V14.00,2013-08-26 14:14:00,
2013-08-26 08:15:00,64.1,51.7,29.83,SW,215,0.0,4.0,64,0.00,,,0.00,311.00,VWS V14.00,2013-08-26 14:15:00,
2013-08-26 08:22:00,64.8,50.2,29.83,NNW,336,0.0,5.0,59,0.00,,,0.00,336.00,VWS V14.00,2013-08-26 14:22:00,
2013-08-26 08:30:00,65.5,51.3,29.83,NNW,347,1.0,5.0,60,0.00,,,0.00,367.00,VWS V14.00,2013-08-26 14:30:00,
2013-08-26 08:45:00,66.6,50.4,29.84,North,351,4.0,6.0,56,0.00,,,0.00,417.00,VWS V14.00,2013-08-26 14:45:00,
2013-08-26 09:00:00,67.7,49.5,29.84,North,360,2.0,4.0,52,0.00,,,0.00,468.00,VWS V14.00,2013-08-26 15:00:00,
2013-08-26 09:15:00,69.0,50.7,29.84,ENE,59,2.0,4.0,52,0.00,,,0.00,519.00,VWS V14.00,2013-08-26 15:15:00,
2013-08-26 09:21:00,69.2,49.8,29.84,NW,309,0.0,8.0,50,0.00,,,0.00,536.00,VWS V14.00,2013-08-26 15:21:00,
2013-08-26 09:30:00,69.4,50.5,29.85,NW,308,6.0,10.0,51,0.00,,,0.00,564.00,VWS V14.00,2013-08-26 15:30:00,
2013-08-26 09:31:00,69.4,49.4,29.85,NNW,331,2.0,13.0,49,0.00,,,0.00,566.00,VWS V14.00,2013-08-26 15:31:00,
2013-08-26 09:42:00,69.3,49.9,29.85,WNW,296,2.0,14.0,50,0.00,,,0.00,599.00,VWS V14.00,2013-08-26 15:42:00,
2013-08-26 09:45:00,69.6,50.2,29.85,NNW,346,5.0,14.0,50,0.00,,,0.00,612.00,VWS V14.00,2013-08-26 15:45:00,
2013-08-26 09:59:00,69.9,50.4,29.85,NE,49,0.0,10.0,50,0.00,,,0.00,652.00,VWS V14.00,2013-08-26 15:59:00,
2013-08-26 10:00:00,69.9,50.4,29.85,NE,44,5.0,10.0,50,0.00,,,0.00,654.00,VWS V14.00,2013-08-26 16:00:00,
2013-08-26 10:15:00,70.7,49.5,29.85,WSW,238,4.0,8.0,47,0.00,,,0.00,696.00,VWS V14.00,2013-08-26 16:15:00,
2013-08-26 10:30:00,71.2,48.8,29.85,SE,141,4.0,11.0,45,0.00,,,0.00,737.00,VWS V14.00,2013-08-26 16:30:00,
2013-08-26 10:39:00,71.9,48.8,29.85,SSE,147,0.0,6.0,44,0.00,,,0.00,758.00,VWS V14.00,2013-08-26 16:39:00,
2013-08-26 10:45:00,72.2,48.5,29.86,WNW,292,1.0,6.0,43,0.00,,,0.00,772.00,VWS V14.00,2013-08-26 16:45:00,
2013-08-26 10:53:00,72.6,48.8,29.86,NW,307,0.0,14.0,43,0.00,,,0.00,802.00,VWS V14.00,2013-08-26 16:53:00,
2013-08-26 11:00:00,72.5,50.6,29.86,NNW,333,0.0,14.0,46,0.00,,,0.00,812.00,VWS V14.00,2013-08-26 17:00:00,
2013-08-26 11:03:00,72.3,49.8,29.86,North,360,3.0,10.0,45,0.00,,,0.00,819.00,VWS V14.00,2013-08-26 17:03:00,
2013-08-26 11:14:00,72.3,50.4,29.86,NNW,346,0.0,10.0,46,0.00,,,0.00,849.00,VWS V14.00,2013-08-26 17:14:00,
2013-08-26 11:15:00,72.4,49.3,29.87,NNW,342,0.0,10.0,44,0.00,,,0.00,853.00,VWS V14.00,2013-08-26 17:15:00,
2013-08-26 11:30:00,73.3,49.5,29.87,WNW,303,0.0,13.0,43,0.00,,,0.00,114.00,VWS V14.00,2013-08-26 17:30:00,
2013-08-26 11:42:00,72.7,50.8,29.87,WSW,254,1.0,11.0,46,0.00,,,0.00,933.00,VWS V14.00,2013-08-26 17:42:00,
2013-08-26 11:45:00,72.9,51.5,29.86,NW,319,0.0,11.0,47,0.00,,,0.00,926.00,VWS V14.00,2013-08-26 17:45:00,
2013-08-26 11:54:00,73.4,50.8,29.86,NNW,343,2.0,11.0,45,0.00,,,0.00,949.00,VWS V14.00,2013-08-26 17:54:00,
2013-08-26 12:00:00,73.7,53.4,29.86,NW,324,7.0,14.0,49,0.00,,,0.00,956.00,VWS V14.00,2013-08-26 18:00:00,
2013-08-26 12:04:00,73.8,51.2,29.86,North,5,1.0,9.0,45,0.00,,,0.00,990.00,VWS V14.00,2013-08-26 18:04:00,
2013-08-26 12:15:00,73.5,49.7,29.85,NW,317,5.0,9.0,43,0.00,,,0.00,216.00,VWS V14.00,2013-08-26 18:15:00,
2013-08-26 12:30:00,72.7,50.2,29.84,NNE,23,0.0,9.0,45,0.00,,,0.00,113.00,VWS V14.00,2013-08-26 18:30:00,
2013-08-26 12:31:00,72.7,51.3,29.84,WNW,290,9.0,9.0,47,0.00,,,0.00,114.00,VWS V14.00,2013-08-26 18:31:00,
2013-08-26 12:41:00,71.9,48.8,29.84,WSW,254,1.0,11.0,44,0.00,,,0.00,98.00,VWS V14.00,2013-08-26 18:41:00,
2013-08-26 12:45:00,71.5,49.1,29.84,NW,309,1.0,12.0,45,0.00,,,0.00,97.00,VWS V14.00,2013-08-26 18:45:00,
2013-08-26 13:00:00,70.1,48.4,29.84,NNW,331,1.0,9.0,46,0.00,,,0.00,120.00,VWS V14.00,2013-08-26 19:00:00,
2013-08-26 13:11:00,69.8,49.2,29.84,NNW,329,1.0,7.0,48,0.00,,,0.00,258.00,VWS V14.00,2013-08-26 19:11:00,
2013-08-26 13:15:00,69.9,51.0,29.84,NNW,329,0.0,7.0,51,0.00,,,0.00,292.00,VWS V14.00,2013-08-26 19:15:00,
2013-08-26 13:21:00,70.8,49.6,29.83,North,5,7.0,8.0,47,0.00,,,0.00,211.00,VWS V14.00,2013-08-26 19:21:00,
2013-08-26 13:30:00,72.0,51.3,29.83,NW,315,9.0,11.0,48,0.00,,,0.00,670.00,VWS V14.00,2013-08-26 19:30:00,
2013-08-26 13:31:00,72.1,50.8,29.83,WSW,257,6.0,9.0,47,0.00,,,0.00,670.00,VWS V14.00,2013-08-26 19:31:00,
2013-08-26 13:42:00,73.3,53.0,29.83,ENE,66,0.0,13.0,49,0.00,,,0.00,352.00,VWS V14.00,2013-08-26 19:42:00,
2013-08-26 13:45:00,73.2,52.9,29.83,ENE,73,1.0,13.0,49,0.00,,,0.00,320.00,VWS V14.00,2013-08-26 19:45:00,
2013-08-26 13:52:00,72.9,53.2,29.83,ENE,64,1.0,3.0,50,0.00,,,0.00,279.00,VWS V14.00,2013-08-26 19:52:00,
2013-08-26 14:00:00,72.5,53.4,29.83,East,86,3.0,5.0,51,0.00,,,0.00,304.00,VWS V14.00,2013-08-26 20:00:00,
2013-08-26 14:08:00,72.1,53.0,29.82,East,96,0.0,5.0,51,0.00,,,0.00,311.00,VWS V14.00,2013-08-26 20:08:00,
2013-08-26 14:15:00,71.9,52.3,29.82,ESE,116,0.0,7.0,50,0.00,,,0.00,267.00,VWS V14.00,2013-08-26 20:15:00,
2013-08-26 14:21:00,71.7,53.7,29.82,ESE,117,0.0,4.0,53,0.00,,,0.00,181.00,VWS V14.00,2013-08-26 20:21:00,
2013-08-26 14:30:00,71.2,51.6,29.83,ESE,105,0.0,6.0,50,0.00,,,0.00,98.00,VWS V14.00,2013-08-26 20:30:00,
2013-08-26 14:37:00,70.7,51.7,29.83,ESE,106,0.0,6.0,51,0.00,,,0.00,123.00,VWS V14.00,2013-08-26 20:37:00,
2013-08-26 14:45:00,70.1,53.7,29.83,SSW,193,0.0,7.0,56,0.00,,,0.00,197.00,VWS V14.00,2013-08-26 20:45:00,
2013-08-26 15:00:00,69.0,54.1,29.83,SSW,204,0.0,6.0,59,0.00,,,0.00,234.00,VWS V14.00,2013-08-26 21:00:00,
2013-08-26 15:11:00,69.3,54.4,29.83,SW,223,0.0,4.0,59,0.00,,,0.00,332.00,VWS V14.00,2013-08-26 21:11:00,
2013-08-26 15:15:00,69.5,53.1,29.83,SW,215,0.0,5.0,56,0.00,,,0.00,272.00,VWS V14.00,2013-08-26 21:15:00,
2013-08-26 15:30:00,69.7,53.8,29.83,South,171,1.0,4.0,57,0.00,,,0.00,202.00,VWS V14.00,2013-08-26 21:30:00,
2013-08-26 15:34:00,69.6,53.2,29.82,South,170,0.0,2.0,56,0.00,,,0.00,232.00,VWS V14.00,2013-08-26 21:34:00,
2013-08-26 15:45:00,69.3,53.4,29.82,South,169,0.0,2.0,57,0.00,,,0.00,594.00,VWS V14.00,2013-08-26 21:45:00,
2013-08-26 15:48:00,69.2,54.3,29.82,South,169,0.0,1.0,59,0.00,,,0.00,828.00,VWS V14.00,2013-08-26 21:48:00,
2013-08-26 15:58:00,69.6,54.2,29.82,SSW,193,0.0,4.0,58,0.00,,,0.00,176.00,VWS V14.00,2013-08-26 21:58:00,
2013-08-26 16:00:00,69.6,53.7,29.82,SSW,202,0.0,4.0,57,0.00,,,0.00,178.00,VWS V14.00,2013-08-26 22:00:00,
2013-08-26 16:15:00,69.5,54.1,29.82,SSW,201,0.0,3.0,58,0.00,,,0.00,134.00,VWS V14.00,2013-08-26 22:15:00,
2013-08-26 16:23:00,69.2,53.8,29.81,SSW,205,1.0,3.0,58,0.00,,,0.00,67.00,VWS V14.00,2013-08-26 22:23:00,
2013-08-26 16:30:00,68.6,56.4,29.82,SSW,209,0.0,4.0,65,0.00,,,0.00,32.00,VWS V14.00,2013-08-26 22:30:00,
2013-08-26 16:33:00,68.2,56.4,29.83,SW,222,0.0,5.0,66,0.00,,,0.00,30.00,VWS V14.00,2013-08-26 22:33:00,
2013-08-26 16:44:00,65.2,54.8,29.83,SW,222,0.0,11.0,69,0.00,,,0.01,42.00,VWS V14.00,2013-08-26 22:44:00,
2013-08-26 16:45:00,64.7,55.1,29.84,SSW,199,1.0,11.0,71,0.00,,,0.01,35.00,VWS V14.00,2013-08-26 22:45:00,
2013-08-26 17:00:00,61.6,53.6,29.85,SSW,200,0.0,8.0,75,0.04,,,0.02,21.00,VWS V14.00,2013-08-26 23:00:00,
2013-08-26 17:15:00,59.9,53.0,29.84,SW,216,1.0,5.0,78,0.00,,,0.02,26.00,VWS V14.00,2013-08-26 23:15:00,
2013-08-26 17:30:00,59.0,54.2,29.84,SW,217,0.0,5.0,84,0.00,,,0.03,60.00,VWS V14.00,2013-08-26 23:30:00,
2013-08-26 17:45:00,58.8,54.3,29.84,SW,235,0.0,3.0,85,0.00,,,0.03,25.00,VWS V14.00,2013-08-26 23:45:00,
2013-08-26 17:50:00,58.8,54.3,29.84,SW,231,0.0,3.0,85,0.00,,,0.03,19.00,VWS V14.00,2013-08-26 23:50:00,
2013-08-26 18:00:00,58.8,53.7,29.84,SW,232,2.0,5.0,83,0.00,,,0.04,12.00,VWS V14.00,2013-08-27 00:00:00,
2013-08-26 18:15:00,58.4,53.3,29.84,West,265,0.0,10.0,83,0.00,,,0.05,7.00,VWS V14.00,2013-08-27 00:15:00,
2013-08-26 18:30:00,58.1,53.0,29.83,WNW,289,0.0,8.0,83,0.00,,,0.05,12.00,VWS V14.00,2013-08-27 00:30:00,
2013-08-26 18:45:00,57.7,52.2,29.83,West,278,0.0,7.0,82,0.00,,,0.05,30.00,VWS V14.00,2013-08-27 00:45:00,
2013-08-26 18:57:00,57.6,51.8,29.84,WNW,284,0.0,7.0,81,0.00,,,0.05,12.00,VWS V14.00,2013-08-27 00:57:00,
2013-08-26 19:00:00,57.5,51.7,29.84,West,280,0.0,7.0,81,0.00,,,0.05,16.00,VWS V14.00,2013-08-27 01:00:00,
2013-08-26 19:15:00,57.5,51.4,29.83,NNW,333,0.0,5.0,80,0.00,,,0.05,11.00,VWS V14.00,2013-08-27 01:15:00,
2013-08-26 19:28:00,57.4,51.0,29.83,WNW,292,0.0,6.0,79,0.00,,,0.05,7.00,VWS V14.00,2013-08-27 01:28:00,
2013-08-26 19:30:00,57.4,51.0,29.83,WNW,291,0.0,8.0,79,0.00,,,0.05,7.00,VWS V14.00,2013-08-27 01:30:00,
2013-08-26 19:34:00,57.5,50.7,29.82,WNW,288,0.0,5.0,78,0.00,,,0.05,5.00,VWS V14.00,2013-08-27 01:34:00,
2013-08-26 19:41:00,57.7,50.5,29.82,NW,313,4.0,6.0,77,0.00,,,0.05,0.00,VWS V14.00,2013-08-27 01:41:00,
2013-08-26 19:45:00,57.9,50.7,29.82,WNW,298,2.0,6.0,77,0.00,,,0.05,0.00,VWS V14.00,2013-08-27 01:45:00,
2013-08-26 19:57:00,58.3,50.4,29.82,West,281,0.0,7.0,75,0.00,,,0.05,0.00,VWS V14.00,2013-08-27 01:57:00,
2013-08-26 20:00:00,58.4,50.5,29.82,WNW,293,0.0,7.0,75,0.00,,,0.05,0.00,VWS V14.00,2013-08-27 02:00:00,
2013-08-26 20:15:00,58.9,50.3,29.83,WNW,295,2.0,7.0,73,0.00,,,0.05,0.00,VWS V14.00,2013-08-27 02:15:00,
2013-08-26 20:25:00,59.0,50.4,29.83,WNW,302,0.0,6.0,73,0.00,,,0.05,0.00,VWS V14.00,2013-08-27 02:25:00,
2013-08-26 20:30:00,59.0,50.7,29.83,NW,305,1.0,6.0,74,0.00,,,0.05,0.00,VWS V14.00,2013-08-27 02:30:00,
2013-08-26 20:35:00,58.9,50.6,29.83,NW,305,0.0,4.0,74,0.00,,,0.05,0.00,VWS V14.00,2013-08-27 02:35:00,
2013-08-26 20:41:00,58.9,49.9,29.84,WNW,302,0.0,4.0,72,0.00,,,0.05,0.00,VWS V14.00,2013-08-27 02:41:00,
2013-08-26 20:45:00,59.0,50.7,29.85,SSW,196,0.0,12.0,74,0.00,,,0.05,0.00,VWS V14.00,2013-08-27 02:45:00,
2013-08-26 20:46:00,59.0,50.7,29.85,SSW,196,0.0,12.0,74,0.00,,,0.05,0.00,VWS V14.00,2013-08-27 02:46:00,
2013-08-26 20:51:00,59.1,50.8,29.85,SW,229,3.0,9.0,74,0.00,,,0.05,0.00,VWS V14.00,2013-08-27 02:51:00,
2013-08-26 20:56:00,59.1,51.9,29.86,South,188,5.0,9.0,77,0.00,,,0.06,0.00,VWS V14.00,2013-08-27 02:56:00,
2013-08-26 21:00:00,58.7,52.6,29.86,SW,222,0.0,12.0,80,0.12,,,0.07,0.00,VWS V14.00,2013-08-27 03:00:00,
2013-08-26 21:01:00,58.6,52.5,29.86,SW,224,0.0,0.0,80,0.12,,,0.07,0.00,VWS V14.00,2013-08-27 03:01:00,
2013-08-26 21:06:00,58.1,52.3,29.87,WSW,257,0.0,6.0,81,0.34,,,0.09,0.00,VWS V14.00,2013-08-27 03:06:00,
2013-08-26 21:12:00,57.6,52.2,29.86,SSW,202,0.0,6.0,82,0.14,,,0.10,0.00,VWS V14.00,2013-08-27 03:12:00,
2013-08-26 21:15:00,57.3,52.2,29.86,WSW,237,1.0,6.0,83,0.07,,,0.10,0.00,VWS V14.00,2013-08-27 03:15:00,
2013-08-26 21:17:00,57.2,52.1,29.87,WSW,252,0.0,2.0,83,0.06,,,0.10,0.00,VWS V14.00,2013-08-27 03:17:00,
2013-08-26 21:22:00,56.8,52.0,29.86,WSW,241,0.0,2.0,84,0.04,,,0.10,0.00,VWS V14.00,2013-08-27 03:22:00,
2013-08-26 21:27:00,56.6,51.8,29.86,West,269,2.0,6.0,84,0.04,,,0.11,0.00,VWS V14.00,2013-08-27 03:27:00,
2013-08-26 21:30:00,56.3,51.5,29.86,West,277,2.0,6.0,84,0.10,,,0.12,0.00,VWS V14.00,2013-08-27 03:30:00,
2013-08-26 21:32:00,56.2,51.4,29.86,West,271,0.0,3.0,84,0.10,,,0.12,0.00,VWS V14.00,2013-08-27 03:32:00,
2013-08-26 21:37:00,55.9,51.1,29.86,NW,306,1.0,6.0,84,0.07,,,0.12,0.00,VWS V14.00,2013-08-27 03:37:00,
2013-08-26 21:42:00,55.7,51.3,29.86,NW,304,0.0,6.0,85,0.04,,,0.12,0.00,VWS V14.00,2013-08-27 03:42:00,
2013-08-26 21:45:00,55.5,51.4,29.86,WNW,290,2.0,6.0,86,0.00,,,0.12,0.00,VWS V14.00,2013-08-27 03:45:00,
2013-08-26 21:48:00,55.4,51.3,29.86,WNW,292,0.0,5.0,86,0.00,,,0.12,0.00,VWS V14.00,2013-08-27 03:48:00,
2013-08-26 21:56:00,55.2,51.4,29.86,WNW,300,0.0,5.0,87,0.00,,,0.12,0.00,VWS V14.00,2013-08-27 03:56:00,
2013-08-26 22:00:00,55.2,51.7,29.86,WNW,297,2.0,5.0,88,0.00,,,0.12,0.00,VWS V14.00,2013-08-27 04:00:00,
2013-08-26 22:01:00,55.2,51.7,29.86,WNW,297,2.0,5.0,88,0.00,,,0.12,0.00,VWS V14.00,2013-08-27 04:01:00,
2013-08-26 22:06:00,55.2,51.7,29.87,SW,233,2.0,4.0,88,0.00,,,0.13,0.00,VWS V14.00,2013-08-27 04:06:00,
2013-08-26 22:09:00,55.2,51.7,29.87,SW,234,0.0,4.0,88,0.00,,,0.13,0.00,VWS V14.00,2013-08-27 04:09:00,
2013-08-26 22:15:00,55.3,51.8,29.88,SW,224,0.0,4.0,88,0.16,,,0.15,0.00,VWS V14.00,2013-08-27 04:15:00,
2013-08-26 22:30:00,55.2,52.0,29.86,SW,221,0.0,1.0,89,0.05,,,0.17,0.00,VWS V14.00,2013-08-27 04:30:00,
2013-08-26 22:45:00,54.9,51.7,29.85,SSW,211,0.0,5.0,89,0.00,,,0.17,0.00,VWS V14.00,2013-08-27 04:45:00,
2013-08-26 23:00:00,54.6,51.7,29.85,West,278,2.0,6.0,90,0.00,,,0.17,0.00,VWS V14.00,2013-08-27 05:00:00,
2013-08-26 23:15:00,54.5,51.6,29.85,WNW,288,0.0,5.0,90,0.00,,,0.17,0.00,VWS V14.00,2013-08-27 05:15:00,
2013-08-26 23:30:00,54.4,51.5,29.85,WNW,288,0.0,2.0,90,0.00,,,0.17,0.00,VWS V14.00,2013-08-27 05:30:00,
2013-08-26 23:45:00,54.1,51.2,29.85,WNW,288,0.0,2.0,90,0.00,,,0.17,0.00,VWS V14.00,2013-08-27 05:45:00,